Frenchville, ME

1:43 AM EDT on May 30, 2017 (GMT -0400)
Northern Aroostook Regional

Weather History for KFVE - November, 2012

Change the Weather History Date:

Friday, November 9, 2012

  Actual Average Record
Temperature  
Mean Temperature 34 °F 33 °F  
Max Temperature 36 °F 39 °F 62 °F (1996)
Min Temperature 31 °F 27 °F 16 °F (2003)
Degree Days  
Heating Degree Days 31    
Month to date heating degree days 274  
Since 1 July heating degree days 1237  
Cooling Degree Days 0    
Month to date cooling degree days 0  
Year to date cooling degree days 203  
Moisture  
Dew Point 28 °F    
Average Humidity 83    
Maximum Humidity 93    
Minimum Humidity 73    
Precipitation  
Precipitation T in 0.09 in 0.80 in (2008)
Month to date precipitation 0.19 0.83  
Year to date precipitation 29.85 28.95  
Sea Level Pressure  
Sea Level Pressure 29.79 in    
Wind  
Wind Speed 13 mph (NW)    
Max Wind Speed 25 mph    
Max Gust Speed 38 mph    
Visibility 10 miles    
Events Rain    
T = Trace of Precipitation, MM = Missing Value Source: NWS Daily Summary

Daily Weather History Graph

Daily Weather History Graph

Search for Another Location

Airport or City:

Trip Planner

Search our weather history database for the weather conditions in past years. The results will help you decide how hot, cold, wet, or windy it might be!

Date:

Astronomy

Nov. 09, 2012 Rise Set
Actual Time 6:29 AM EST 4:04 PM EST
Civil Twilight 5:56 AM EST 4:37 PM EST
Nautical Twilight 5:19 AM EST 5:13 PM EST
Astronomical Twilight 4:43 AM EST 5:49 PM EST
Moon 1:05 AM EST (11/9) 1:32 PM EST (11/9)
Length of Visible Light 10h 40m
Length of Day
9h 35m
Waning Crescent, 23% of the Moon is Illuminated
Nov 9
Waning Crescent
Nov 13
New
Nov 20
First Quarter
Nov 28
Full
Dec 6
Last Quarter

Hourly Weather History & Observations

Time (EST) Temp. Windchill Dew Point Humidity Pressure Visibility Wind Dir Wind Speed Gust Speed Precip Events Conditions
12:01 AM 32.0 °F 22.1 °F 28.4 °F 87% 29.80 in 10.0 mi North 13.8 mph 19.6 mph N/A   Overcast
12:09 AM 32.0 °F 22.1 °F 30.2 °F 93% 29.80 in 10.0 mi North 13.8 mph - N/A   Overcast
12:26 AM 32.0 °F 21.6 °F 28.4 °F 87% 29.80 in 10.0 mi North 15.0 mph - N/A   Overcast
12:53 AM 32.0 °F 22.1 °F 30.0 °F 92% 29.83 in 10.0 mi North 13.8 mph 19.6 mph N/A   Overcast
1:53 AM 32.0 °F 23.0 °F 30.0 °F 92% 29.82 in 5.0 mi North 11.5 mph - 0.00 in Rain Light Freezing Rain
2:13 AM 32.0 °F 22.1 °F 30.2 °F 93% 29.79 in 6.0 mi North 13.8 mph 20.7 mph 0.00 in Rain Light Freezing Rain
2:26 AM 32.0 °F 22.1 °F 30.2 °F 93% 29.78 in 6.0 mi North 13.8 mph - 0.00 in   Overcast
2:53 AM 32.0 °F 21.2 °F 30.0 °F 92% 29.80 in 7.0 mi North 16.1 mph 20.7 mph 0.00 in   Overcast
3:44 AM 32.0 °F 22.1 °F 30.2 °F 93% 29.77 in 10.0 mi North 13.8 mph - 0.00 in   Overcast
3:53 AM 32.0 °F 22.5 °F 30.0 °F 92% 29.80 in 10.0 mi North 12.7 mph - 0.00 in   Overcast
4:09 AM 32.0 °F 22.1 °F 30.2 °F 93% 29.76 in 10.0 mi North 13.8 mph - N/A   Overcast
4:42 AM 32.0 °F 23.6 °F 30.2 °F 93% 29.76 in 10.0 mi NNW 10.4 mph - N/A   Overcast
4:53 AM 32.0 °F 24.2 °F 28.9 °F 88% 29.79 in 10.0 mi NNW 9.2 mph - N/A   Overcast
5:02 AM 32.0 °F 22.1 °F 28.4 °F 87% 29.76 in 10.0 mi NNW 13.8 mph - N/A   Overcast
5:53 AM 32.0 °F 21.6 °F 28.9 °F 88% 29.79 in 10.0 mi NNW 15.0 mph - N/A   Overcast
6:28 AM 32.0 °F 22.5 °F 28.4 °F 87% 29.77 in 10.0 mi NNW 12.7 mph - N/A   Overcast
6:53 AM 32.0 °F 22.5 °F 28.9 °F 88% 29.81 in 10.0 mi NNW 12.7 mph - N/A   Overcast
7:44 AM 32.0 °F 22.5 °F 28.4 °F 87% 29.78 in 10.0 mi NNW 12.7 mph - N/A   Overcast
7:53 AM 32.0 °F 22.1 °F 28.9 °F 88% 29.82 in 10.0 mi NNW 13.8 mph 19.6 mph N/A   Overcast
8:53 AM 33.1 °F 21.5 °F 28.9 °F 85% 29.81 in 10.0 mi NNW 19.6 mph 23.0 mph N/A   Overcast
9:53 AM 34.0 °F 26.0 °F 28.9 °F 82% 29.80 in 10.0 mi NNW 10.4 mph - N/A   Overcast
10:53 AM 33.1 °F 22.2 °F 28.9 °F 85% 29.80 in 7.0 mi NW 17.3 mph - N/A   Overcast
11:34 AM 33.8 °F 23.9 °F 28.4 °F 81% 29.75 in 10.0 mi NW 15.0 mph 23.0 mph N/A   Overcast
11:53 AM 34.0 °F 26.0 °F 28.9 °F 82% 29.78 in 10.0 mi NW 10.4 mph 20.7 mph N/A   Overcast
12:53 PM 35.1 °F 26.4 °F 28.0 °F 76% 29.77 in 10.0 mi NW 12.7 mph 23.0 mph N/A   Overcast
1:53 PM 35.1 °F 28.6 °F 28.0 °F 76% 29.77 in 10.0 mi NW 8.1 mph 18.4 mph N/A   Mostly Cloudy
2:39 PM 35.6 °F 28.0 °F 28.4 °F 75% 29.75 in 10.0 mi NW 10.4 mph - N/A   Scattered Clouds
2:53 PM 36.0 °F 27.1 °F 28.0 °F 73% 29.78 in 10.0 mi WNW 13.8 mph 20.7 mph N/A   Clear
3:53 PM 34.0 °F 25.5 °F 28.0 °F 79% 29.78 in 10.0 mi WNW 11.5 mph - N/A   Clear
4:53 PM 34.0 °F 25.0 °F 27.0 °F 75% 29.79 in 10.0 mi WNW 12.7 mph - N/A   Scattered Clouds
5:53 PM 34.0 °F 26.6 °F 27.0 °F 75% 29.81 in 10.0 mi NW 9.2 mph - N/A   Mostly Cloudy
6:18 PM 33.8 °F 23.9 °F 28.4 °F 81% 29.78 in 10.0 mi WNW 15.0 mph 20.7 mph N/A   Overcast
6:43 PM 33.8 °F 24.8 °F 26.6 °F 75% 29.79 in 10.0 mi WNW 12.7 mph - N/A   Mostly Cloudy
6:53 PM 33.1 °F 23.0 °F 27.0 °F 78% 29.82 in 10.0 mi WNW 15.0 mph 24.2 mph N/A   Scattered Clouds
7:14 PM 33.8 °F 21.9 °F 26.6 °F 75% 29.79 in 10.0 mi WNW 21.9 mph 29.9 mph N/A   Mostly Cloudy
7:53 PM 34.0 °F 22.4 °F 27.0 °F 75% 29.82 in 10.0 mi WNW 20.7 mph 26.5 mph N/A   Overcast
8:53 PM 34.0 °F 23.4 °F 26.1 °F 73% 29.83 in 10.0 mi WNW 17.3 mph 24.2 mph N/A   Overcast
9:42 PM 33.8 °F 25.8 °F 26.6 °F 75% 29.80 in 10.0 mi West 10.4 mph - N/A   Overcast
9:53 PM 34.0 °F 26.0 °F 27.0 °F 75% 29.83 in 10.0 mi West 10.4 mph - N/A   Overcast
10:53 PM 33.1 °F 27.7 °F 27.0 °F 78% 29.84 in 10.0 mi West 5.8 mph - N/A   Overcast
11:53 PM 33.8 °F 29.6 °F 26.6 °F 75% 29.81 in 10.0 mi SW 4.6 mph - N/A   Overcast